Regional Weather Roundup
Issued by NWS

Home | Current Version | Previous Version | Graphics & Text | Print | Product List | Glossary On
Versions: 1 2 3 4 5 6 7 8 9 10 11 12 13 14 15 16 17 18 19 20 21 22 23 24 25 26 27 28 29 30 31 32 33 34 35 36 37 38 39 40 41 42 43 44 45 46 47 48 49 50
000
ASUS44 KMEG 010310
RWRTN
TENNESSEE HOURLY STATE WEATHER ROUNDUP
NATIONAL WEATHER SERVICE MEMPHIS TN
1000 PM CDT TUE SEP 30 2014

TNZ002-004-019-021-049-052-054-088>092-010400-
WEST TENNESSEE

CITY           SKY/WX    TMP DP  RH WIND       PRES   REMARKS
MEMPHIS INTL   MOCLDY    73  63  70 CALM      29.89R
NWS MEMPHIS      N/A     68 N/A N/A MISG        N/A
JACKSON        PTCLDY    65  62  90 CALM      29.91R
DYERSBURG      PTCLDY    66  54  63 CALM      29.91S
UNION CITY     CLEAR     63  59  88 CALM      29.90S
PARIS          CLEAR     61  55  82 CALM      29.92S
HUNTINGDON     CLEAR     63  58  83 CALM      29.92R
LEXINGTON      CLEAR     63  63 100 CALM      29.91S
SAVANNAH       PTCLDY    63  63 100 CALM      29.92R
$$

TNZ008-025-027-028-033-062-065-066-010400-
NORTH MIDDLE TENNESSEE

CITY           SKY/WX    TMP DP  RH WIND       PRES   REMARKS
NASHVILLE      MOCLDY    68  55  63 CALM      29.93R
PORTLAND       CLEAR     63  55  77 CALM      29.93R
CLARKSVILLE    PTCLDY    64  57  78 CALM      29.91R
LEBANON        PTCLDY    61  53  74 CALM      29.91S
SMYRNA         PTCLDY    61  57  86 CALM      29.93R
MURFREESBORO   PTCLDY    66  53  63 CALM      29.93R
COOKEVILLE     CLEAR     55  54  94 CALM      29.95R
LIVINGSTON     CLEAR     64  49  58 CALM      29.97
GALLATIN       PTCLDY    63  57  80 CALM      29.94R
CROSSVILLE     CLEAR     60  55  83 CALM      30.00R
$$

TNZ061-075-076-078-094-096-097-010400-
SOUTH MIDDLE TENNESSEE

CITY           SKY/WX    TMP DP  RH WIND       PRES   REMARKS
LEWISBURG      PTCLDY    61  57  86 CALM      29.93R
FAYETTEVILLE   CLEAR     64  57  77 NE5G23    29.94R
TULLAHOMA      CLEAR     61  55  82 CALM      29.96S
WINCHESTER     CLEAR     61  57  88 CALM      29.95S
MCMINNVILLE    CLEAR     59  59 100 CALM      29.95S
COLUMBIA       CLEAR     63  63 100 CALM      29.92R
SHELBYVILLE    CLEAR     63  55  77 CALM      29.95R
$$

TNZ017-018-042-046-047-010400-
NORTHEAST TENNESSEE

CITY           SKY/WX    TMP DP  RH WIND       PRES   REMARKS
TRI CITIES     CLEAR     59  55  87 CALM      29.97R
ELIZABETHTON   CLEAR     55  54  94 CALM      29.99R
$$

TNZ012-013-036-069-073-074-010400-
CENTRAL EAST TENNESSEE

CITY           SKY/WX    TMP DP  RH WIND       PRES   REMARKS
KNOXVILLE      PTCLDY    66  59  78 CALM      29.94S
OAK RIDGE      CLEAR     62  60  93 CALM      29.97R
GATLINBURG     CLEAR     61  57  88 CALM      29.96S
MORRISTOWN     CLEAR     63  57  82 CALM      29.97S
$$

TNZ083-085-099-010400-
SOUTHEAST TENNESSEE

CITY           SKY/WX    TMP DP  RH WIND       PRES   REMARKS
CHATTANOOGA    PTCLDY    69  62  78 CALM      29.94R
$$

SKY/WX REPORTED AS FAIR MEANS FEW OR NO CLOUDS BELOW
12 THOUSAND FEET.




USA.gov is the U.S. government's official web portal to all federal, state and local government web resources and services.